This is the latest recevied weather packets stored in our database for station/object WE1C. If no packets are shown the sender has not sent any weather packets the latest 10 day(s).
| Time | Temp. | Humidity | Pressure | Rain* | Wind** | Luminosity | Snow |
|---|---|---|---|---|---|---|---|
| 1778005453 | 27.22° C | 37% | 1036.2 hPa | 0 mm | - | 233 W/m² | - |
| 1778005149 | 27.78° C | 38% | 1036.5 hPa | 0 mm | - | 206 W/m² | - |
| 1778004847 | 27.78° C | 36% | 1036.5 hPa | 0 mm | - | 665 W/m² | - |
| 1778004543 | 26.67° C | 38% | 1036.3 hPa | 0 mm | - | 802 W/m² | - |
| 1778004240 | 27.22° C | 37% | 1036.3 hPa | 0 mm | - | 782 W/m² | - |
| 1778003936 | 27.78° C | 37% | 1036.4 hPa | 0 mm | - | 222 W/m² | - |
| 1778003633 | 27.78° C | 36% | 1036.7 hPa | 0 mm | - | 809 W/m² | - |
| 1778003329 | 27.78° C | 37% | 1036.8 hPa | 0 mm | - | 826 W/m² | - |
| 1778003027 | 27.78° C | 38% | 1036.9 hPa | 0 mm | - | 876 W/m² | - |
| 1778002723 | 27.78° C | 37% | 1036.8 hPa | 0 mm | - | 815 W/m² | - |
| 1778002419 | 27.22° C | 37% | 1036.7 hPa | 0 mm | - | 780 W/m² | - |
| 1778002117 | 27.22° C | 39% | 1036.9 hPa | 0 mm | - | 777 W/m² | - |
| 1778001814 | 27.22° C | 39% | 1037 hPa | 0 mm | - | 766 W/m² | - |
| 1778001514 | 27.22° C | 38% | 1036.8 hPa | 0 mm | - | 769 W/m² | - |
| 1778001211 | 26.67° C | 38% | 1037.3 hPa | 0 mm | - | 772 W/m² | - |
| 1778000907 | 27.22° C | 39% | 1037 hPa | 0 mm | - | 813 W/m² | - |
| 1778000604 | 27.22° C | 38% | 1037.2 hPa | 0 mm | - | 654 W/m² | - |
| 1778000300 | 27.78° C | 39% | 1037.1 hPa | 0 mm | - | 780 W/m² | - |
| 1777999995 | 27.22° C | 38% | 1037 hPa | 0 mm | - | 773 W/m² | - |
| 1777999691 | 26.67° C | 39% | 1037.6 hPa | 0 mm | - | 786 W/m² | - |
| 1777999389 | 26.11° C | 41% | 1037.5 hPa | 0 mm | - | 776 W/m² | - |
| 1777999087 | 26.67° C | 39% | 1037.5 hPa | 0 mm | - | 776 W/m² | - |
| 1777998785 | 26.67° C | 40% | 1037.4 hPa | 0 mm | - | 780 W/m² | - |
| 1777998483 | 26.67° C | 39% | 1037.7 hPa | 0 mm | - | 786 W/m² | - |
| 1777998179 | 26.11° C | 40% | 1037.6 hPa | 0 mm | - | 760 W/m² | - |
* Rain latest hour (hover to see other rain measurements)
** Current wind speed in m/s (hover to see current wind gust speed)